Location: Marcé
(47.5801°N, 0.3280°W)
Time: 15:49:29
(UTC+01:00)

Transit 2A - Pass Details

Date: 07 December 2021
Orbit: 591 x 967 km, 66.7° (Epoch: 21 January)

Event Time Altitude Azimuth Distance (km) Brightness Sun altitude
Rises 06:35:52 0° 324° (NW) 3,635 - -19.3°
Exits shadow 06:39:03 10° 339° (NNW) 2,729 8.5 -18.7°
Reaches altitude 10° 06:39:08 10° 340° (NNW) 2,709 8.5 -18.7°
Maximum altitude 06:43:52 21° 28° (NNE) 2,015 8.3 -18.0°
Drops below altitude 10° 06:48:35 10° 76° (ENE) 2,685 9.7 -17.2°
Sets 06:51:47 0° 92° (E) 3,594 11.0 -16.7°
